This is the latest recevied weather packets stored in our database for station/object OE2ATN. If no packets are shown the sender has not sent any weather packets the latest 10 day(s).
| Time | Temp. | Humidity | Pressure | Rain* | Wind** | Luminosity | Snow |
|---|---|---|---|---|---|---|---|
| 1777700074 | 6.67° C | 69% | 1033.8 hPa | 0 mm | - | - | - |
| 1777699774 | 5.56° C | 65% | 1033.8 hPa | 0 mm | - | - | - |
| 1777699474 | 5.56° C | 68% | 1033.7 hPa | 0 mm | - | - | - |
| 1777699175 | 5° C | 58% | 1033.7 hPa | 0 mm | - | - | - |
| 1777698875 | 4.44° C | 51% | 1033.7 hPa | 0 mm | - | - | - |
| 1777698575 | 3.89° C | 38% | 1033.8 hPa | 0 mm | - | - | - |
| 1777698275 | 3.33° C | 40% | 1033.8 hPa | 0 mm | - | - | - |
| 1777697975 | 2.78° C | 42% | 1033.7 hPa | 0 mm | - | - | - |
| 1777697675 | 2.78° C | 41% | 1033.8 hPa | 0 mm | - | - | - |
| 1777697374 | 2.78° C | 38% | 1033.6 hPa | 0 mm | - | - | - |
| 1777697074 | 2.78° C | 43% | 1033.7 hPa | 0 mm | - | - | - |
| 1777696774 | 2.78° C | 44% | 1033.7 hPa | 0 mm | - | - | - |
| 1777696474 | 2.78° C | 45% | 1033.8 hPa | 0 mm | - | - | - |
| 1777696174 | 2.78° C | 48% | 1033.7 hPa | 0 mm | - | - | - |
| 1777695875 | 2.78° C | 46% | 1033.7 hPa | 0 mm | - | - | - |
| 1777695574 | 2.78° C | 45% | 1033.7 hPa | 0 mm | - | - | - |
| 1777695274 | 2.78° C | 49% | 1033.7 hPa | 0 mm | - | - | - |
| 1777694975 | 2.78° C | 48% | 1033.6 hPa | 0 mm | - | - | - |
| 1777694675 | 2.78° C | 45% | 1033.6 hPa | 0 mm | - | - | - |
| 1777694375 | 2.78° C | 46% | 1033.6 hPa | 0 mm | - | - | - |
| 1777694075 | 2.78° C | 49% | 1033.6 hPa | 0 mm | - | - | - |
| 1777693774 | 2.78° C | 53% | 1033.6 hPa | 0 mm | - | - | - |
| 1777693475 | 2.78° C | 53% | 1033.5 hPa | 0 mm | - | - | - |
| 1777693175 | 2.78° C | 55% | 1033.6 hPa | 0 mm | - | - | - |
| 1777692874 | 2.78° C | 60% | 1033.6 hPa | 0 mm | - | - | - |
* Rain latest hour (hover to see other rain measurements)
** Current wind speed in m/s (hover to see current wind gust speed)